Weather History for KBTR - October, 2011

Change the Weather History Date:

Thursday, October 27, 2011

  Actual Average Record
Temperature  
Mean Temperature 71 °F 66 °F  
Max Temperature 85 °F 78 °F 95 °F (1907)
Min Temperature 57 °F 54 °F 32 °F (1898)
Degree Days  
Heating Degree Days 0 3  
Month to date heating degree days 38 32  
Since 1 July heating degree days 38 34  
Cooling Degree Days 6 4  
Month to date cooling degree days 104 165  
Year to date cooling degree days 2953 2736  
Growing Degree Days 22 (Base 50)    
Moisture  
Dew Point 58 °F    
Average Humidity 66    
Maximum Humidity 100    
Minimum Humidity 31    
Precipitation  
Precipitation 0.00 in 0.15 in 2.15 in (1985)
Month to date precipitation 0.16 4.10  
Year to date precipitation 38.88 50.35  
Snow  
Snow 0.00 in - - ()
Month to date snowfall 0.0  
Since 1 July snowfall 0.0  
Since 1 September snowfall 0.0  
Snow Depth 0.00 in    
Sea Level Pressure  
Sea Level Pressure 29.90 in    
Wind  
Wind Speed 1 mph (ESE)    
Max Wind Speed 9 mph    
Max Gust Speed 14 mph    
Visibility 8 miles    
Events Fog    
T = Trace of Precipitation, MM = Missing Value Source: NWS Daily Summary

Daily Weather History Graph

Daily Weather History Graph

Search for Another Location

Airport or City:

Trip Planner

Search our weather history database for the weather conditions in past years. The results will help you decide how hot, cold, wet, or windy it might be!

Date:

Astronomy

Oct. 27, 2011 Rise Set
Actual Time 7:15 AM CDT 6:21 PM CDT
Civil Twilight 6:50 AM CDT 6:45 PM CDT
Nautical Twilight 6:22 AM CDT 7:14 PM CDT
Astronomical Twilight 5:54 AM CDT 7:42 PM CDT
Moon 8:10 AM CDT (10/27) 7:00 PM CDT (10/27)
Length of Visible Light 11h 55m
Length of Day
11h 06m
New Moon, 1% of the Moon is Illuminated
Oct 27
New Moon
Nov 2
First Quarter
Nov 10
Full
Nov 18
Last Quarter
Nov 25
New

Hourly Weather History & Observations

Time (CDT) Temp. Heat Index Dew Point Humidity Pressure Visibility Wind Dir Wind Speed Gust Speed Precip Events Conditions
12:53 AM 59.0 °F - 57.9 °F 96% 29.95 in 8.0 mi Calm Calm - N/A   Clear
1:53 AM 59.0 °F - 57.0 °F 93% 29.94 in 8.0 mi Calm Calm - N/A   Clear
2:53 AM 59.0 °F - 57.9 °F 96% 29.94 in 6.0 mi Calm Calm - N/A   Clear
3:53 AM 60.1 °F - 59.0 °F 96% 29.92 in 7.0 mi Calm Calm - N/A   Clear
4:53 AM 60.1 °F - 59.0 °F 96% 29.91 in 6.0 mi Calm Calm - N/A   Clear
5:53 AM 60.1 °F - 59.0 °F 96% 29.91 in 5.0 mi Calm Calm - N/A   Clear
6:40 AM 59.0 °F - 59.0 °F 100% 29.92 in 2.0 mi Calm Calm - N/A   Clear
6:53 AM 60.1 °F - 60.1 °F 100% 29.91 in 3.0 mi Calm Calm - N/A   Clear
7:53 AM 60.1 °F - 59.0 °F 96% 29.92 in 5.0 mi Calm Calm - N/A Fog Shallow Fog
8:53 AM 68.0 °F - 64.9 °F 90% 29.93 in 5.0 mi Calm Calm - N/A   Clear
9:53 AM 73.9 °F - 64.9 °F 73% 29.94 in 10.0 mi Calm Calm - N/A   Clear
10:53 AM 77.0 °F - 66.0 °F 69% 29.94 in 10.0 mi Calm Calm - N/A   Partly Cloudy
11:53 AM 79.0 °F - 59.0 °F 50% 29.93 in 10.0 mi Calm Calm - N/A   Clear
12:53 PM 81.0 °F 80.7 °F 55.0 °F 41% 29.91 in 10.0 mi Variable 3.5 mph - N/A   Clear
1:53 PM 82.9 °F 81.8 °F 53.1 °F 36% 29.88 in 10.0 mi Variable 6.9 mph - N/A   Clear
2:53 PM 84.0 °F 82.6 °F 54.0 °F 35% 29.86 in 10.0 mi Variable 3.5 mph - N/A   Scattered Clouds
3:53 PM 84.9 °F - 52.0 °F 32% 29.85 in 10.0 mi Variable 5.8 mph - N/A   Scattered Clouds
4:53 PM 84.0 °F - 50.0 °F 31% 29.85 in 10.0 mi Calm Calm - N/A   Clear
5:53 PM 79.0 °F - 53.1 °F 40% 29.86 in 10.0 mi Calm Calm - N/A   Clear
6:53 PM 71.1 °F - 57.9 °F 63% 29.86 in 10.0 mi East 3.5 mph - N/A   Clear
7:53 PM 70.0 °F - 57.9 °F 65% 29.88 in 10.0 mi Calm Calm - N/A   Clear
8:53 PM 66.0 °F - 57.9 °F 75% 29.89 in 10.0 mi SSE 4.6 mph - N/A   Clear
9:53 PM 64.9 °F - 59.0 °F 81% 29.91 in 10.0 mi Calm Calm - N/A   Clear
10:53 PM 64.0 °F - 60.1 °F 87% 29.91 in 8.0 mi Calm Calm - N/A   Clear
11:53 PM 62.1 °F - 59.0 °F 90% 29.90 in 10.0 mi Calm Calm - N/A   Clear